Back to catalog

STARLINK-32543

AliveCommunicationsVLEO
NORAD 63364·PAYLOAD·🇺🇸 United States

Launched Mar 26, 2025 from Vandenberg Space Force Base

Loading…

Next Passes (next 24 hours)

TLE

FreshSource: CelesTrak SupGP

Epoch: Sep 14, 2026, 22:30 UTC

1 63364C 25063B   26257.93798611  .00038062  00000+0  11245-2 0  2574
2 63364  53.1579 247.5628 0001244  86.8915  34.5087 15.34372649    18

Track STARLINK-32543 in real time with AllMySat

Download on the App Store